Location: Gloden
(48.4833°N, 15.3167°E)
Time: 10:19:13
(UTC+00:00)

USA 234 - Pass Details

Date: 15 December 2019
Orbit: 1099 x 1108 km, 123.0° (Epoch: 20 January)

Event Time Altitude Azimuth Distance (km) Brightness Sun altitude
Rises 04:34:22 0° 55° (NE) 3,923 6.8 -20.3°
Reaches altitude 10° 04:36:50 10° 55° (NE) 2,964 6.1 -19.9°
Maximum altitude 04:43:24 89° 331° (NNW) 1,109 3.2 -18.8°
Enters shadow 04:49:31 12° 238° (WSW) 2,787 5.0 -17.8°
